Location: B�hl
(48.6968°N, 8.1352°E)
Time: 02:51:34
(UTC+00:00)

HJ-1C - Pass Details

Date: 08 March 2021
Orbit: 428 x 441 km, 97.1° (Epoch: 12 April)

Event Time Altitude Azimuth Distance (km) Brightness Sun altitude
Rises 18:19:19 0° 167° (SSE) 2,410 6.9 -10.2°
Reaches altitude 10° 18:21:20 10° 167° (SSE) 1,544 5.9 -10.6°
Maximum altitude 18:24:39 87° 259° (W) 443 3.3 -11.1°
Drops below altitude 10° 18:27:58 10° 347° (NNW) 1,551 6.4 -11.7°
Sets 18:29:59 0° 348° (NNW) 2,422 7.4 -12.0°
